QPF
0.00 0.01 0.02 0.02 0.02 0.02 0.01 0.01 0.01 0.01 0.01 0.01 0.01 0.01 0.01 0.01 0.01 0.01 0.02 0.02 0.02 0.02 0.03 0.02 0.01 0.01 0.01 0.01 0.00 0.00 0.00 0.00 0.00 0.01 0.01 0.01 0.01 0.01 0.01 0.01 0.01 0.01 0.02
0.00 0.00 0.02 0.02 0.02 0.02 0.02 0.01 0.02 0.01 0.01 0.02 0.02 0.01 0.01 0.01 0.01 0.02 0.02 0.03 0.02 0.02 0.02 0.02 0.01 0.01 0.01 0.00 0.00 0.00 0.00 0.01 0.00 0.01 0.00 0.01 0.01 0.01 0.01 0.01 0.01 0.02 0.02
0.00 0.00 0.01 0.01 0.02 0.04 0.03 0.02 0.01 0.01 0.01 0.01 0.02 0.02 0.02 0.01 0.02 0.02 0.02 0.02 0.02 0.02 0.02 0.02 0.02 0.01 0.01 0.01 0.00 0.00 0.00 0.00 0.01 0.01 0.00 0.00 0.01 0.01 0.01 0.01 0.02 0.02 0.02
0.00 0.00 0.01 0.02 0.02 0.04 0.03 0.03 0.01 0.01 0.01 0.01 0.02 0.02 0.03 0.02 0.02 0.01 0.01 0.01 0.02 0.02 0.02 0.01 0.01 0.01 0.01 0.01 0.00 0.00 0.00 0.00 0.00 0.01 0.00 0.00 0.00 0.01 0.01 0.01 0.02 0.01 0.02
0.00 0.00 0.01 0.02 0.02 0.02 0.02 0.02 0.01 0.01 0.02 0.02 0.02 0.02 0.02 0.02 0.01 0.01 0.01 0.02 0.02 0.02 0.02 0.01 0.01 0.01 0.01 0.01 0.00 0.00 0.00 0.00 0.00 0.00 0.01 0.00 0.00 0.01 0.02 0.01 0.02 0.02 0.01
0.00 0.00 0.00 0.01 0.02 0.02 0.03 0.03 0.02 0.01 0.01 0.02 0.02 0.02 0.03 0.02 0.01 0.01 0.01 0.01 0.01 0.02 0.02 0.02 0.02 0.02 0.02 0.01 0.00 0.00 0.00 0.00 0.00 0.00 0.00 0.01 0.01 0.01 0.01 0.01 0.02 0.02 0.01
0.01 0.01 0.01 0.01 0.02 0.02 0.02 0.03 0.02 0.01 0.02 0.03 0.02 0.02 0.02 0.02 0.01 0.01 0.01 0.01 0.01 0.01 0.01 0.01 0.01 0.02 0.02 0.01 0.01 0.01 0.00 0.00 0.00 0.00 0.00 0.01 0.01 0.01 0.01 0.01 0.02 0.02 0.01
0.02 0.02 0.01 0.01 0.02 0.02 0.02 0.03 0.02 0.02 0.02 0.03 0.02 0.01 0.02 0.02 0.01 0.01 0.00 0.00 0.01 0.01 0.01 0.01 0.01 0.01 0.01 0.01 0.01 0.01 0.00 0.00 0.00 0.00 0.00 0.00 0.01 0.02 0.02 0.02 0.03 0.02 0.02
0.02 0.02 0.02 0.01 0.02 0.02 0.01 0.02 0.03 0.02 0.03 0.02 0.02 0.01 0.02 0.02 0.02 0.01 0.01 0.00 0.01 0.01 0.01 0.01 0.01 0.01 0.01 0.01 0.01 0.01 0.00 0.00 0.00 0.00 0.00 0.00 0.02 0.02 0.03 0.03 0.03 0.02 0.01
0.04 0.02 0.02 0.02 0.02 0.02 0.02 0.01 0.03 0.03 0.02 0.02 0.01 0.01 0.01 0.02 0.02 0.02 0.01 0.00 0.00 0.01 0.01 0.01 0.01 0.02 0.02 0.01 0.01 0.01 0.00 0.00 0.00 0.00 0.00 0.01 0.01 0.02 0.03 0.02 0.03 0.02 0.01
0.06 0.04 0.03 0.02 0.02 0.02 0.02 0.02 0.03 0.03 0.02 0.02 0.01 0.01 0.01 0.02 0.02 0.02 0.01 0.01 0.01 0.01 0.01 0.01 0.01 0.02 0.02 0.02 0.01 0.01 0.00 0.00 0.00 0.00 0.00 0.01 0.01 0.02 0.02 0.02 0.03 0.04 0.02
0.06 0.04 0.03 0.03 0.02 0.02 0.02 0.02 0.02 0.02 0.02 0.01 0.00 0.00 0.00 0.01 0.01 0.01 0.01 0.01 0.01 0.01 0.01 0.00 0.01 0.01 0.01 0.01 0.01 0.01 0.00 0.00 0.00 0.00 0.00 0.01 0.01 0.02 0.02 0.02 0.02 0.04 0.04
0.08 0.07 0.05 0.05 0.04 0.03 0.01 0.01 0.01 0.02 0.02 0.01 0.00 0.00 0.00 0.00 0.01 0.02 0.02 0.02 0.01 0.01 0.01 0.00 0.00 0.00 0.01 0.01 0.01 0.01 0.01 0.00 0.00 0.00 0.00 0.00 0.01 0.03 0.02 0.02 0.02 0.03 0.05
0.08 0.08 0.08 0.07 0.07 0.06 0.04 0.02 0.01 0.01 0.02 0.02 0.01 0.00 0.00 0.00 0.01 0.01 0.03 0.04 0.04 0.03 0.01 0.00 0.00 0.00 0.00 0.01 0.01 0.01 0.01 0.01 0.00 0.00 0.00 0.00 0.00 0.01 0.02 0.01 0.01 0.02 0.05
0.07 0.06 0.07 0.08 0.08 0.08 0.08 0.06 0.02 0.01 0.02 0.02 0.01 0.01 0.01 0.00 0.00 0.01 0.01 0.02 0.03 0.03 0.03 0.01 0.00 0.00 0.00 0.00 0.00 0.01 0.01 0.01 0.01 0.01 0.00 0.00 0.00 0.00 0.01 0.01 0.02 0.02 0.03
0.06 0.06 0.06 0.07 0.08 0.08 0.07 0.07 0.05 0.04 0.03 0.03 0.02 0.01 0.01 0.01 0.01 0.01 0.01 0.01 0.02 0.01 0.01 0.01 0.00 0.00 0.00 0.00 0.00 0.00 0.00 0.01 0.01 0.01 0.01 0.01 0.01 0.01 0.01 0.01 0.02 0.02 0.03
0.05 0.05 0.06 0.06 0.07 0.07 0.07 0.07 0.07 0.07 0.06 0.06 0.04 0.04 0.02 0.01 0.01 0.01 0.01 0.01 0.02 0.02 0.01 0.01 0.01 0.00 0.00 0.00 0.00 0.00 0.00 0.00 0.01 0.01 0.01 0.01 0.01 0.01 0.01 0.01 0.01 0.02 0.02
0.06 0.05 0.05 0.06 0.07 0.07 0.07 0.08 0.08 0.08 0.08 0.08 0.07 0.07 0.04 0.02 0.01 0.01 0.01 0.01 0.01 0.01 0.01 0.01 0.01 0.01 0.00 0.00 0.00 0.00 0.01 0.00 0.00 0.00 0.00 0.01 0.01 0.00 0.01 0.01 0.01 0.01 0.02
0.05 0.05 0.04 0.05 0.05 0.06 0.07 0.08 0.09 0.09 0.08 0.09 0.09 0.07 0.07 0.05 0.03 0.02 0.02 0.02 0.02 0.01 0.01 0.00 0.00 0.00 0.00 0.00 0.00 0.00 0.00 0.01 0.01 0.00 0.00 0.00 0.01 0.01 0.00 0.00 0.01 0.01 0.01
0.03 0.03 0.03 0.04 0.04 0.05 0.05 0.07 0.10 0.11 0.10 0.09 0.09 0.07 0.07 0.07 0.06 0.05 0.04 0.03 0.03 0.02 0.01 0.01 0.00 0.01 0.01 0.00 0.00 0.00 0.00 0.01 0.01 0.01 0.01 0.00 0.00 0.01 0.01 0.01 0.01 0.00 0.01
0.02 0.02 0.02 0.03 0.03 0.03 0.04 0.04 0.07 0.09 0.10 0.09 0.07 0.07 0.07 0.06 0.06 0.05 0.05 0.05 0.04 0.03 0.02 0.02 0.02 0.02 0.01 0.01 0.00 0.00 0.00 0.00 0.01 0.01 0.01 0.01 0.01 0.00 0.01 0.01 0.01 0.00 0.00
0.02 0.01 0.01 0.02 0.02 0.02 0.02 0.03 0.04 0.07 0.09 0.10 0.09 0.08 0.08 0.08 0.06 0.06 0.04 0.05 0.05 0.05 0.04 0.02 0.02 0.02 0.02 0.01 0.00 0.00 0.00 0.00 0.00 0.01 0.01 0.01 0.01 0.01 0.01 0.01 0.01 0.01 0.00
0.02 0.01 0.01 0.01 0.01 0.02 0.03 0.04 0.04 0.07 0.10 0.11 0.11 0.09 0.08 0.09 0.09 0.06 0.05 0.05 0.07 0.08 0.07 0.06 0.05 0.04 0.03 0.02 0.01 0.01 0.01 0.01 0.00 0.00 0.01 0.01 0.01 0.01 0.01 0.01 0.01 0.01 0.01
0.02 0.02 0.01 0.01 0.01 0.02 0.03 0.04 0.04 0.05 0.09 0.11 0.10 0.08 0.07 0.07 0.07 0.07 0.06 0.05 0.05 0.06 0.07 0.09 0.10 0.10 0.09 0.08 0.06 0.04 0.03 0.02 0.01 0.01 0.01 0.01 0.01 0.01 0.01 0.01 0.01 0.01 0.01
0.02 0.03 0.02 0.01 0.01 0.02 0.02 0.03 0.06 0.05 0.07 0.10 0.13 0.12 0.08 0.06 0.06 0.06 0.05 0.04 0.04 0.04 0.04 0.07 0.09 0.08 0.06 0.06 0.05 0.04 0.03 0.02 0.02 0.02 0.02 0.01 0.01 0.02 0.02 0.02 0.01 0.01 0.01
0.03 0.04 0.04 0.03 0.02 0.02 0.03 0.04 0.05 0.06 0.07 0.08 0.09 0.11 0.11 0.09 0.07 0.06 0.05 0.04 0.04 0.04 0.04 0.04 0.06 0.07 0.06 0.04 0.03 0.03 0.02 0.02 0.02 0.02 0.02 0.02 0.02 0.02 0.02 0.02 0.03 0.02 0.01
MSLP
1005.12 1004.68 1004.46 1004.46 1004.62 1004.89 1005.18 1005.46 1005.69 1005.87 1006.04 1006.24 1006.51 1006.87 1007.31 1007.80 1008.31 1008.79 1009.22 1009.59 1009.91 1010.20 1010.52 1010.87 1011.26 1011.69 1012.14 1012.55 1012.92 1013.21 1013.44 1013.62 1013.77 1013.93 1014.12 1014.34 1014.58 1014.82 1015.06 1015.26 1015.42 1015.56 1015.67
1005.11 1004.73 1004.54 1004.52 1004.65 1004.86 1005.11 1005.35 1005.56 1005.76 1005.98 1006.25 1006.60 1007.03 1007.53 1008.06 1008.59 1009.07 1009.47 1009.81 1010.09 1010.37 1010.66 1010.99 1011.37 1011.78 1012.20 1012.59 1012.93 1013.22 1013.44 1013.64 1013.83 1014.04 1014.27 1014.54 1014.83 1015.11 1015.37 1015.58 1015.75 1015.89 1016.02
1004.90 1004.59 1004.43 1004.43 1004.54 1004.73 1004.95 1005.17 1005.40 1005.63 1005.91 1006.25 1006.67 1007.16 1007.70 1008.26 1008.78 1009.24 1009.61 1009.92 1010.18 1010.43 1010.71 1011.04 1011.41 1011.81 1012.22 1012.60 1012.94 1013.23 1013.47 1013.70 1013.93 1014.18 1014.47 1014.78 1015.10 1015.40 1015.67 1015.90 1016.08 1016.23 1016.36
1004.60 1004.35 1004.23 1004.25 1004.36 1004.54 1004.76 1004.98 1005.22 1005.49 1005.80 1006.19 1006.66 1007.20 1007.76 1008.32 1008.83 1009.27 1009.62 1009.91 1010.16 1010.41 1010.70 1011.03 1011.42 1011.83 1012.25 1012.63 1012.98 1013.28 1013.55 1013.81 1014.08 1014.37 1014.69 1015.03 1015.36 1015.67 1015.94 1016.17 1016.36 1016.52 1016.68
1004.34 1004.14 1004.06 1004.10 1004.22 1004.40 1004.61 1004.82 1005.06 1005.33 1005.66 1006.07 1006.56 1007.11 1007.68 1008.24 1008.74 1009.16 1009.51 1009.80 1010.06 1010.34 1010.65 1011.02 1011.43 1011.87 1012.30 1012.71 1013.07 1013.40 1013.70 1013.99 1014.28 1014.60 1014.93 1015.27 1015.59 1015.89 1016.15 1016.37 1016.56 1016.75 1016.93
1004.25 1004.09 1004.04 1004.10 1004.22 1004.39 1004.56 1004.75 1004.95 1005.19 1005.51 1005.90 1006.39 1006.93 1007.49 1008.04 1008.54 1008.96 1009.32 1009.64 1009.93 1010.25 1010.61 1011.02 1011.47 1011.94 1012.40 1012.83 1013.21 1013.56 1013.88 1014.19 1014.51 1014.83 1015.16 1015.48 1015.77 1016.04 1016.27 1016.48 1016.68 1016.89 1017.11
1004.42 1004.27 1004.24 1004.30 1004.41 1004.54 1004.67 1004.80 1004.94 1005.12 1005.39 1005.74 1006.19 1006.71 1007.27 1007.81 1008.31 1008.75 1009.14 1009.49 1009.84 1010.20 1010.61 1011.07 1011.55 1012.04 1012.52 1012.97 1013.37 1013.73 1014.07 1014.39 1014.71 1015.02 1015.33 1015.62 1015.89 1016.12 1016.32 1016.51 1016.71 1016.94 1017.21
1004.84 1004.69 1004.66 1004.71 1004.80 1004.88 1004.94 1004.99 1005.05 1005.16 1005.36 1005.66 1006.07 1006.57 1007.10 1007.64 1008.16 1008.62 1009.03 1009.42 1009.81 1010.22 1010.66 1011.14 1011.65 1012.16 1012.64 1013.09 1013.49 1013.86 1014.20 1014.52 1014.84 1015.14 1015.43 1015.70 1015.93 1016.12 1016.30 1016.49 1016.69 1016.94 1017.24
1005.44 1005.28 1005.24 1005.27 1005.32 1005.35 1005.34 1005.31 1005.30 1005.33 1005.47 1005.72 1006.10 1006.57 1007.09 1007.63 1008.15 1008.62 1009.05 1009.46 1009.87 1010.30 1010.75 1011.24 1011.74 1012.24 1012.71 1013.14 1013.54 1013.89 1014.23 1014.55 1014.86 1015.16 1015.44 1015.69 1015.90 1016.09 1016.25 1016.43 1016.65 1016.92 1017.25
1006.10 1005.92 1005.87 1005.87 1005.89 1005.87 1005.81 1005.72 1005.64 1005.63 1005.73 1005.95 1006.31 1006.76 1007.28 1007.81 1008.32 1008.78 1009.21 1009.61 1010.01 1010.42 1010.86 1011.32 1011.80 1012.26 1012.70 1013.11 1013.48 1013.82 1014.15 1014.47 1014.78 1015.08 1015.37 1015.62 1015.83 1016.02 1016.20 1016.39 1016.61 1016.90 1017.26
1006.70 1006.50 1006.43 1006.41 1006.40 1006.35 1006.25 1006.14 1006.04 1006.02 1006.11 1006.33 1006.69 1007.14 1007.64 1008.16 1008.65 1009.09 1009.48 1009.85 1010.20 1010.57 1010.97 1011.38 1011.81 1012.23 1012.63 1013.00 1013.34 1013.66 1013.98 1014.29 1014.61 1014.92 1015.22 1015.50 1015.74 1015.95 1016.15 1016.36 1016.61 1016.91 1017.27
1007.17 1006.95 1006.85 1006.82 1006.79 1006.72 1006.63 1006.52 1006.44 1006.44 1006.56 1006.81 1007.18 1007.64 1008.14 1008.63 1009.09 1009.48 1009.82 1010.12 1010.41 1010.72 1011.06 1011.42 1011.79 1012.17 1012.53 1012.86 1013.17 1013.47 1013.76 1014.07 1014.39 1014.71 1015.03 1015.34 1015.62 1015.88 1016.12 1016.36 1016.63 1016.94 1017.30
1007.48 1007.24 1007.12 1007.07 1007.03 1006.97 1006.89 1006.82 1006.79 1006.84 1007.01 1007.31 1007.71 1008.18 1008.68 1009.14 1009.54 1009.88 1010.15 1010.38 1010.61 1010.86 1011.13 1011.44 1011.78 1012.11 1012.44 1012.74 1013.02 1013.29 1013.57 1013.85 1014.17 1014.49 1014.83 1015.17 1015.49 1015.79 1016.08 1016.35 1016.65 1016.97 1017.33
1007.70 1007.43 1007.29 1007.21 1007.16 1007.11 1007.06 1007.03 1007.06 1007.18 1007.41 1007.76 1008.20 1008.68 1009.16 1009.59 1009.95 1010.23 1010.44 1010.61 1010.78 1010.97 1011.21 1011.49 1011.80 1012.12 1012.42 1012.71 1012.97 1013.21 1013.45 1013.71 1013.99 1014.31 1014.64 1014.99 1015.34 1015.68 1016.00 1016.32 1016.64 1016.97 1017.32
1007.88 1007.59 1007.41 1007.31 1007.25 1007.20 1007.17 1007.18 1007.26 1007.44 1007.73 1008.11 1008.57 1009.06 1009.52 1009.93 1010.25 1010.48 1010.65 1010.78 1010.91 1011.09 1011.31 1011.58 1011.89 1012.21 1012.51 1012.79 1013.03 1013.25 1013.46 1013.67 1013.90 1014.18 1014.48 1014.82 1015.16 1015.52 1015.87 1016.22 1016.56 1016.90 1017.26
1008.14 1007.81 1007.59 1007.46 1007.37 1007.31 1007.29 1007.32 1007.43 1007.63 1007.95 1008.35 1008.81 1009.29 1009.74 1010.13 1010.42 1010.63 1010.78 1010.90 1011.03 1011.20 1011.44 1011.73 1012.06 1012.40 1012.72 1013.00 1013.24 1013.43 1013.59 1013.74 1013.91 1014.11 1014.36 1014.65 1014.97 1015.31 1015.67 1016.04 1016.40 1016.76 1017.12
1008.50 1008.15 1007.88 1007.70 1007.57 1007.49 1007.45 1007.47 1007.58 1007.79 1008.09 1008.49 1008.94 1009.40 1009.83 1010.20 1010.49 1010.70 1010.86 1010.99 1011.14 1011.34 1011.60 1011.92 1012.28 1012.65 1013.00 1013.30 1013.53 1013.70 1013.82 1013.91 1014.00 1014.12 1014.28 1014.50 1014.76 1015.07 1015.42 1015.78 1016.16 1016.54 1016.92
1008.98 1008.59 1008.29 1008.06 1007.89 1007.76 1007.69 1007.68 1007.75 1007.93 1008.20 1008.56 1008.98 1009.42 1009.84 1010.20 1010.50 1010.74 1010.92 1011.09 1011.27 1011.50 1011.78 1012.13 1012.52 1012.92 1013.29 1013.61 1013.85 1014.01 1014.10 1014.14 1014.16 1014.19 1014.25 1014.38 1014.57 1014.82 1015.14 1015.49 1015.88 1016.27 1016.67
1009.52 1009.11 1008.77 1008.50 1008.28 1008.10 1007.98 1007.92 1007.95 1008.07 1008.28 1008.60 1008.97 1009.39 1009.80 1010.17 1010.50 1010.77 1011.00 1011.20 1011.42 1011.67 1011.97 1012.33 1012.73 1013.14 1013.53 1013.87 1014.14 1014.30 1014.38 1014.39 1014.35 1014.30 1014.28 1014.31 1014.42 1014.60 1014.87 1015.20 1015.57 1015.98 1016.39
1010.04 1009.62 1009.25 1008.94 1008.68 1008.45 1008.28 1008.16 1008.13 1008.18 1008.34 1008.60 1008.94 1009.33 1009.74 1010.15 1010.51 1010.83 1011.10 1011.34 1011.58 1011.84 1012.13 1012.48 1012.86 1013.27 1013.68 1014.04 1014.33 1014.52 1014.62 1014.62 1014.56 1014.46 1014.37 1014.32 1014.34 1014.45 1014.65 1014.94 1015.29 1015.69 1016.12
1010.47 1010.04 1009.66 1009.32 1009.01 1008.74 1008.52 1008.35 1008.25 1008.25 1008.35 1008.56 1008.87 1009.26 1009.69 1010.12 1010.54 1010.91 1011.23 1011.50 1011.75 1011.99 1012.25 1012.56 1012.91 1013.30 1013.70 1014.08 1014.40 1014.64 1014.78 1014.82 1014.76 1014.65 1014.51 1014.40 1014.34 1014.38 1014.51 1014.74 1015.05 1015.43 1015.84
1010.76 1010.34 1009.94 1009.57 1009.23 1008.92 1008.65 1008.43 1008.28 1008.22 1008.28 1008.46 1008.76 1009.14 1009.60 1010.08 1010.56 1010.99 1011.35 1011.65 1011.89 1012.11 1012.33 1012.58 1012.87 1013.22 1013.61 1014.00 1014.37 1014.67 1014.87 1014.97 1014.96 1014.86 1014.71 1014.56 1014.44 1014.40 1014.45 1014.61 1014.87 1015.20 1015.58
1010.93 1010.51 1010.09 1009.69 1009.31 1008.95 1008.64 1008.37 1008.18 1008.09 1008.11 1008.27 1008.56 1008.96 1009.46 1009.99 1010.53 1011.02 1011.43 1011.76 1012.00 1012.19 1012.36 1012.55 1012.78 1013.09 1013.45 1013.86 1014.26 1014.63 1014.91 1015.09 1015.14 1015.08 1014.95 1014.77 1014.61 1014.50 1014.48 1014.56 1014.74 1015.00 1015.32
1011.02 1010.59 1010.15 1009.70 1009.28 1008.88 1008.51 1008.20 1007.97 1007.84 1007.84 1007.98 1008.27 1008.69 1009.23 1009.82 1010.41 1010.97 1011.44 1011.80 1012.06 1012.23 1012.36 1012.50 1012.69 1012.94 1013.29 1013.70 1014.14 1014.57 1014.93 1015.19 1015.32 1015.31 1015.20 1015.03 1014.84 1014.67 1014.57 1014.56 1014.65 1014.82 1015.06
1011.12 1010.67 1010.18 1009.69 1009.21 1008.75 1008.34 1007.98 1007.70 1007.53 1007.50 1007.62 1007.91 1008.34 1008.91 1009.54 1010.20 1010.82 1011.35 1011.76 1012.05 1012.24 1012.36 1012.47 1012.62 1012.85 1013.17 1013.58 1014.05 1014.52 1014.95 1015.27 1015.47 1015.53 1015.46 1015.30 1015.09 1014.88 1014.71 1014.62 1014.61 1014.68 1014.82
1011.28 1010.81 1010.28 1009.73 1009.19 1008.67 1008.19 1007.78 1007.46 1007.24 1007.17 1007.26 1007.52 1007.95 1008.52 1009.19 1009.89 1010.57 1011.17 1011.64 1011.98 1012.21 1012.35 1012.47 1012.61 1012.83 1013.14 1013.54 1014.02 1014.52 1014.98 1015.36 1015.62 1015.72 1015.70 1015.56 1015.35 1015.11 1014.89 1014.72 1014.62 1014.59 1014.63
Thickness
5734 5736 5736 5736 5735 5735 5734 5734 5733 5732 5731 5730 5729 5729 5728 5728 5727 5727 5726 5725 5724 5724 5723 5722 5722 5721 5721 5720 5719 5719 5719 5718 5718 5718 5718 5717 5717 5716 5715 5715 5714 5713 5713
5737 5735 5735 5734 5733 5732 5732 5731 5731 5730 5728 5727 5726 5726 5725 5725 5724 5724 5723 5722 5722 5721 5720 5719 5719 5718 5717 5717 5716 5715 5715 5714 5714 5714 5714 5714 5713 5713 5712 5712 5711 5710 5710
5734 5733 5732 5731 5730 5730 5729 5728 5728 5727 5726 5725 5723 5723 5722 5722 5721 5720 5720 5719 5718 5718 5717 5716 5715 5714 5714 5713 5712 5712 5711 5711 5711 5711 5710 5710 5710 5710 5709 5709 5708 5707 5706
5731 5729 5728 5728 5727 5726 5725 5725 5724 5724 5723 5722 5721 5720 5719 5718 5718 5717 5716 5715 5714 5714 5713 5712 5711 5711 5710 5709 5709 5708 5708 5707 5707 5707 5707 5707 5707 5706 5706 5705 5705 5704 5703
5726 5726 5725 5724 5723 5722 5722 5721 5721 5720 5719 5719 5718 5716 5716 5715 5714 5713 5712 5711 5711 5710 5709 5708 5707 5707 5706 5706 5705 5705 5704 5704 5703 5703 5703 5703 5703 5703 5702 5701 5701 5700 5699
5721 5721 5720 5719 5719 5718 5718 5717 5717 5717 5716 5715 5714 5713 5712 5711 5710 5709 5708 5707 5706 5706 5705 5704 5703 5703 5702 5702 5701 5700 5700 5700 5699 5699 5699 5699 5699 5699 5698 5697 5697 5696 5696
5716 5716 5715 5715 5714 5714 5713 5713 5713 5712 5712 5711 5710 5709 5708 5707 5706 5705 5704 5703 5702 5701 5700 5699 5699 5698 5698 5697 5697 5696 5696 5695 5695 5695 5695 5695 5695 5695 5694 5693 5693 5692 5692
5711 5710 5710 5710 5709 5709 5708 5708 5708 5707 5707 5706 5705 5704 5703 5702 5701 5700 5699 5698 5697 5696 5695 5695 5694 5694 5694 5693 5693 5692 5691 5691 5690 5690 5691 5691 5691 5691 5690 5689 5689 5688 5687
5704 5704 5704 5704 5703 5703 5703 5703 5703 5702 5702 5701 5700 5699 5698 5697 5695 5694 5693 5692 5691 5690 5690 5689 5689 5689 5688 5688 5688 5687 5686 5686 5686 5686 5686 5686 5686 5686 5686 5685 5684 5684 5683
5696 5696 5697 5697 5697 5697 5696 5696 5697 5696 5696 5696 5695 5694 5692 5692 5690 5689 5687 5686 5686 5685 5684 5684 5683 5683 5683 5683 5682 5682 5682 5681 5681 5681 5681 5681 5682 5682 5681 5680 5680 5679 5678
5687 5688 5690 5690 5690 5690 5690 5690 5690 5690 5690 5689 5689 5687 5686 5685 5684 5683 5682 5681 5680 5679 5678 5678 5677 5677 5677 5677 5676 5676 5676 5676 5676 5676 5677 5677 5677 5677 5676 5676 5675 5674 5673
5677 5679 5682 5683 5683 5683 5683 5683 5683 5683 5683 5682 5682 5681 5680 5679 5678 5677 5676 5675 5674 5673 5673 5672 5672 5671 5671 5671 5670 5670 5670 5670 5671 5671 5672 5672 5672 5672 5671 5671 5670 5669 5669
5672 5672 5674 5675 5676 5676 5676 5676 5676 5676 5676 5676 5675 5674 5673 5672 5671 5671 5670 5669 5668 5667 5667 5666 5666 5665 5665 5665 5664 5664 5664 5664 5665 5666 5666 5667 5667 5666 5666 5666 5665 5664 5664
5663 5665 5666 5668 5669 5670 5670 5669 5669 5669 5669 5669 5669 5668 5667 5666 5665 5664 5663 5663 5662 5661 5660 5660 5659 5659 5659 5658 5658 5658 5658 5658 5659 5660 5661 5661 5661 5661 5661 5660 5660 5659 5659
5654 5657 5660 5661 5662 5662 5662 5662 5662 5662 5662 5662 5662 5661 5661 5660 5659 5658 5657 5656 5656 5655 5655 5654 5654 5653 5653 5652 5652 5652 5652 5652 5653 5653 5654 5655 5655 5655 5656 5655 5655 5654 5653
5646 5649 5651 5653 5654 5655 5655 5655 5655 5655 5655 5655 5655 5655 5655 5654 5653 5652 5651 5650 5650 5649 5649 5648 5648 5647 5647 5647 5646 5646 5646 5646 5647 5647 5648 5649 5649 5649 5650 5650 5649 5648 5648
5638 5640 5642 5644 5645 5646 5647 5648 5648 5647 5648 5647 5648 5648 5648 5648 5647 5646 5645 5644 5644 5643 5643 5642 5641 5640 5640 5640 5640 5640 5640 5640 5640 5640 5641 5642 5643 5642 5643 5643 5643 5642 5641
5629 5630 5633 5634 5635 5636 5638 5639 5640 5640 5640 5640 5640 5641 5641 5642 5641 5640 5639 5638 5637 5636 5635 5635 5634 5633 5632 5632 5632 5633 5633 5634 5634 5634 5635 5635 5636 5635 5636 5636 5636 5635 5635
5620 5621 5623 5624 5625 5627 5628 5630 5630 5631 5632 5632 5632 5633 5633 5634 5634 5633 5632 5631 5631 5629 5628 5628 5626 5626 5625 5625 5625 5625 5626 5626 5626 5627 5627 5628 5628 5628 5628 5628 5628 5628 5627
5609 5611 5612 5614 5615 5616 5617 5618 5620 5621 5622 5624 5624 5625 5626 5626 5627 5626 5625 5624 5623 5622 5621 5620 5619 5619 5618 5617 5617 5617 5617 5618 5619 5620 5620 5621 5621 5621 5621 5621 5620 5620 5620
5597 5598 5601 5602 5603 5605 5605 5607 5608 5610 5612 5615 5617 5618 5619 5619 5620 5619 5619 5617 5617 5616 5615 5614 5612 5610 5609 5608 5606 5605 5607 5609 5611 5612 5613 5613 5613 5614 5614 5614 5613 5612 5612
5584 5586 5588 5591 5593 5594 5596 5597 5599 5601 5603 5605 5608 5609 5610 5612 5612 5612 5612 5611 5610 5609 5607 5607 5606 5603 5601 5601 5598 5595 5595 5598 5602 5605 5605 5606 5606 5606 5606 5606 5606 5605 5605
5570 5573 5577 5578 5581 5583 5585 5586 5587 5588 5591 5593 5596 5599 5601 5603 5604 5604 5605 5604 5603 5602 5601 5601 5600 5598 5595 5593 5593 5591 5588 5591 5591 5594 5596 5598 5598 5598 5598 5599 5599 5598 5597
5557 5560 5563 5566 5568 5571 5573 5575 5577 5578 5581 5585 5587 5590 5592 5594 5595 5596 5596 5596 5596 5595 5594 5594 5593 5592 5589 5586 5584 5585 5585 5585 5583 5583 5586 5589 5589 5590 5590 5591 5591 5591 5590
5545 5547 5550 5552 5555 5558 5561 5563 5565 5568 5571 5574 5577 5579 5582 5584 5586 5586 5587 5588 5587 5587 5586 5586 5585 5585 5584 5582 5579 5577 5576 5575 5575 5576 5577 5579 5580 5582 5582 5583 5583 5583 5583
5532 5534 5537 5539 5542 5545 5548 5551 5554 5557 5560 5563 5566 5569 5572 5574 5575 5576 5578 5579 5579 5578 5578 5578 5578 5577 5577 5576 5574 5573 5571 5569 5568 5567 5568 5569 5570 5572 5573 5574 5574 5575 5574